Location: Newark
(48.2308°N, 120.8549°W)
Time: 02:50:50
(UTC+00:00)

FENGYUN 1C DEB - Pass Details

Date: 29 January 2022
Orbit: 822 x 948 km, 99.2° (Epoch: 28 May)

Event Time Altitude Azimuth Distance (km) Brightness Sun altitude
Rises 03:20:45 0° 166° (SSE) 3,609 ? -23.9°
Reaches altitude 10° 03:23:11 10° 168° (SSE) 2,670 ? -24.3°
Maximum altitude 03:29:12 80° 255° (WSW) 969 ? -25.3°
Drops below altitude 10° 03:35:12 10° 343° (NNW) 2,662 ? -26.3°
Sets 03:37:38 0° 344° (NNW) 3,597 ? -26.7°
